Location: Goudex
(43.3760°N, 0.9543°E)
Time: 07:40:07
(UTC+00:00)

Cosmos 1743 Rocket - Pass Details

Date: 20 November 2019
Orbit: 604 x 633 km, 82.6° (Epoch: 07 December)

Event Time Altitude Azimuth Distance (km) Brightness Sun altitude
Rises 05:20:59 0° 185° (S) 2,853 7.1 -17.0°
Reaches altitude 10° 05:23:11 10° 185° (S) 1,951 6.2 -16.6°
Maximum altitude 05:27:30 85° 99° (E) 614 3.5 -15.8°
Drops below altitude 10° 05:31:51 10° 9° (N) 1,961 6.1 -15.1°
Sets 05:34:04 0° 9° (N) 2,870 6.9 -14.7°
